User: anonymous   Login
Location: Wellington
(41.3000°S, 174.7830°E)
Time: 10:33:47
(UTC+13:00)
Language:

MetOp-B - Orbit

View from above orbital plane
View from above orbital plane
View from above satellite
View from above satellite

Ground track
Ground track

The orbit data is extracted from the following two-line orbital elements,

1 38771U 12049A   19324.24325124 -.00000015  00000-0  13430-4 0  9996
2 38771  98.7237  21.4247 0000408 171.8451 276.4730 14.21483967372155
Epoch (UTC): 20 November 2019 05:50:16
Eccentricity: 0.0000408
inclination: 98.7237°
perigee height: 820 km
apogee height: 820 km
right ascension of ascending node: 21.4247°
argument of perigee: 171.8451°
revolutions per day: 14.21483967
mean anomaly at epoch: 276.4730°
orbit number at epoch: 37215

The dashed part of the orbit path shows where the satellite is in the earth's shadow,  

DLR